Weather History for Phoenix, AZ

Change the Weather History Date:

Wednesday, November 2, 2011

  Actual Average Record
Temperature  
Mean Temperature 71 °F 70 °F  
Max Temperature 79 °F 82 °F 96 °F (1924)
Min Temperature 62 °F 58 °F 34 °F (1956)
Degree Days  
Heating Degree Days 0 1  
Month to date heating degree days 0 2  
Since 1 July heating degree days 0 8  
Cooling Degree Days 6 6  
Month to date cooling degree days 16 12  
Year to date cooling degree days 4880 4548  
Growing Degree Days 20 (Base 50)    
Moisture  
Dew Point 8 °F    
Average Humidity 13    
Maximum Humidity 21    
Minimum Humidity 4    
Precipitation  
Precipitation 0.00 in 0.02 in 0.44 in (1974)
Month to date precipitation 0.00 0.04  
Year to date precipitation 2.75 6.54  
Snow  
Snow 0.00 in - - ()
Month to date snowfall 0.0  
Year to date snowfall 0.0  
Since 1 July snowfall 0.0  
Snow Depth 0.00 in    
Sea Level Pressure  
Sea Level Pressure 30.04 in    
Wind  
Wind Speed 6 mph (North)    
Max Wind Speed 15 mph    
Max Gust Speed 18 mph    
Visibility 10 miles    
Events      
T = Trace of Precipitation, MM = Missing Value Source: NWS Daily Summary

Daily Weather History Graph

Daily Weather History Graph

Search for Another Location

Airport:

Trip Planner

Search our weather history database for the weather conditions in past years. The results will help you decide how hot, cold, wet, or windy it might be!

Date:

Astronomy

Nov. 02, 2011 Rise Set
Actual Time 6:47 AM MST 5:35 PM MST
Civil Twilight 6:21 AM MST 6:01 PM MST
Nautical Twilight 5:52 AM MST 6:30 PM MST
Astronomical Twilight 5:23 AM MST 6:59 PM MST
Moon 1:09 PM MST (11/2) No Moon Set
Length of Visible Light 11h 39m
Length of Day
10h 47m
Waxing Crescent, 51% of the Moon is Illuminated
Nov 2
Waxing Crescent
Nov 10
Full
Nov 18
Last Quarter
Nov 24
New
Dec 2
First Quarter

Hourly Weather History & Observations

Time (MST) Temp. Dew Point Humidity Pressure Visibility Wind Dir Wind Speed Gust Speed Precip Events Conditions
12:51 AM 68.0 °F 26.1 °F 21% 29.90 in 10.0 mi Calm Calm - N/A   Partly Cloudy
1:51 AM 68.0 °F 24.1 °F 19% 29.92 in 10.0 mi Calm Calm - N/A   Partly Cloudy
2:51 AM 64.9 °F 23.0 °F 20% 29.94 in 10.0 mi West 4.6 mph - N/A   Partly Cloudy
3:51 AM 66.2 °F 17.6 °F 15% 29.99 in 10.0 mi WNW 6.9 mph - N/A   Clear
4:51 AM 64.9 °F 10.9 °F 12% 29.98 in 10.0 mi West 9.2 mph - N/A   Clear
5:51 AM 62.1 °F 12.0 °F 14% 30.01 in 10.0 mi NW 9.2 mph - N/A   Clear
6:51 AM 62.6 °F 10.4 °F 13% 30.07 in 10.0 mi North 8.1 mph - N/A   Clear
7:51 AM 64.9 °F 3.0 °F 9% 30.07 in 10.0 mi NNE 6.9 mph - N/A   Clear
8:51 AM 66.9 °F 6.1 °F 9% 30.10 in 10.0 mi NE 8.1 mph - N/A   Clear
9:51 AM 69.1 °F 1.0 °F 7% 30.12 in 10.0 mi Variable 5.8 mph - N/A   Clear
10:51 AM 69.1 °F 1.9 °F 7% 30.12 in 10.0 mi Calm Calm - N/A   Clear
11:51 AM 72.0 °F 1.9 °F 6% 30.10 in 10.0 mi North 6.9 mph - N/A   Clear
12:51 PM 73.9 °F 1.9 °F 6% 30.07 in 10.0 mi NNE 8.1 mph - N/A   Clear
1:51 PM 75.0 °F 1.9 °F 6% 30.05 in 10.0 mi ENE 4.6 mph - N/A   Clear
2:51 PM 77.0 °F -0.0 °F 5% 30.04 in 10.0 mi NNE 10.4 mph - N/A   Clear
3:51 PM 78.1 °F -2.0 °F 4% 30.03 in 10.0 mi North 6.9 mph - N/A   Clear
4:51 PM 77.0 °F -2.0 °F 5% 30.02 in 10.0 mi North 4.6 mph - N/A   Clear
5:51 PM 75.9 °F -0.9 °F 5% 30.02 in 10.0 mi NW 3.5 mph - N/A   Clear
6:51 PM 71.1 °F 9.0 °F 9% 30.04 in 10.0 mi SW 4.6 mph - N/A   Clear
7:51 PM 68.0 °F 10.9 °F 11% 30.04 in 10.0 mi SW 5.8 mph - N/A   Clear
8:51 PM 66.0 °F 10.9 °F 12% 30.06 in 10.0 mi Calm Calm - N/A   Clear
9:51 PM 66.0 °F 10.9 °F 12% 30.07 in 10.0 mi East 4.6 mph - N/A   Clear
10:51 PM 66.0 °F 8.1 °F 10% 30.06 in 10.0 mi ENE 12.7 mph - N/A   Clear
11:51 PM 64.0 °F 9.0 °F 12% 30.06 in 10.0 mi Calm Calm - N/A   Clear